| time (UTC) | temp F | wind direction | speed MPH | gust MPH | rain 1hr in | rain 24hr in | rain mn in | humidity % | barometer mb |
| 20260509024318 | 38 | 360 | 0.0 | 0.0 | 0.00 | 0.00 | 0.00 | 94 | 1017.5 |
| 20260509023318 | 38 | 360 | 0.0 | 0.0 | 0.00 | 0.00 | 0.00 | 94 | 1017.6 |
| 20260509021317 | 38 | 360 | 0.0 | 0.0 | 0.00 | 0.00 | 0.00 | 94 | 1017.5 |
| 20260509020317 | 39 | 360 | 0.0 | 0.0 | 0.00 | 0.00 | 0.00 | 94 | 1017.6 |
| 20260509014317 | 39 | 360 | 0.0 | 0.0 | 0.00 | 0.00 | 0.00 | 93 | 1017.7 |
| 20260509013317 | 39 | 360 | 0.0 | 0.0 | 0.00 | 0.00 | 0.00 | 93 | 1017.7 |
| 20260509011317 | 39 | 360 | 0.0 | 0.0 | 0.00 | 0.00 | 0.00 | 93 | 1017.8 |
| 20260509010318 | 40 | 360 | 0.0 | 0.0 | 0.00 | 0.00 | 0.00 | 93 | 1017.9 |
| 20260509004317 | 40 | 360 | 0.0 | 0.0 | 0.00 | 0.00 | 0.00 | 93 | 1017.8 |
| 20260509003317 | 41 | 360 | 0.0 | 0.0 | 0.00 | 0.00 | 0.00 | 93 | 1017.8 |
| 20260509001317 | 42 | 360 | 0.0 | 0.0 | 0.00 | 0.00 | 0.00 | 92 | 1017.9 |
| 20260509000318 | 42 | 154 | 0.0 | 0.0 | 0.00 | 0.00 | 0.00 | 92 | 1017.9 |
| 20260508234317 | 42 | 360 | 0.0 | 0.0 | 0.00 | 0.00 | 0.00 | 92 | 1017.9 |
| 20260508233317 | 43 | 360 | 0.0 | 0.0 | 0.00 | 0.00 | 0.00 | 92 | 1018.0 |
| 20260508231317 | 43 | 360 | 0.0 | 0.0 | 0.00 | 0.00 | 0.00 | 91 | 1018.0 |
| 20260508230317 | 44 | 360 | 0.0 | 0.0 | 0.00 | 0.00 | 0.00 | 91 | 1017.9 |
| 20260508224316 | 44 | 360 | 0.0 | 0.0 | 0.00 | 0.00 | 0.00 | 90 | 1018.0 |
| 20260508223318 | 44 | 360 | 0.0 | 0.0 | 0.00 | 0.00 | 0.00 | 90 | 1018.0 |
| 20260508221317 | 45 | 360 | 0.0 | 1.0 | 0.00 | 0.00 | 0.00 | 89 | 1018.0 |
| 20260508220317 | 46 | 154 | 0.0 | 0.0 | 0.00 | 0.00 | 0.00 | 89 | 1017.9 |
| 20260508214317 | 47 | 360 | 0.0 | 1.0 | 0.00 | 0.00 | 0.00 | 87 | 1017.8 |
| 20260508213316 | 47 | 154 | 0.0 | 2.0 | 0.00 | 0.00 | 0.00 | 87 | 1017.8 |
| 20260508211317 | 48 | 154 | 0.0 | 2.0 | 0.00 | 0.00 | 0.00 | 86 | 1017.7 |
| 20260508210316 | 49 | 360 | 1.0 | 2.0 | 0.00 | 0.00 | 0.00 | 85 | 1017.7 |
| 20260508204316 | 49 | 360 | 1.0 | 2.0 | 0.00 | 0.00 | 0.00 | 84 | 1017.7 |
| 20260508203316 | 49 | 360 | 1.0 | 2.0 | 0.00 | 0.00 | 0.00 | 83 | 1017.6 |
| 20260508201316 | 50 | 360 | 1.0 | 2.0 | 0.00 | 0.00 | 0.00 | 81 | 1017.5 |
| 20260508200315 | 51 | 360 | 0.0 | 3.0 | 0.00 | 0.00 | 0.00 | 81 | 1017.4 |
| 20260508194316 | 53 | 360 | 0.0 | 2.0 | 0.00 | 0.00 | 0.00 | 77 | 1017.1 |
| 20260508193315 | 53 | 360 | 0.0 | 1.0 | 0.00 | 0.00 | 0.00 | 76 | 1017.0 |
| 20260508191316 | 55 | 360 | 0.0 | 3.0 | 0.00 | 0.00 | 0.00 | 75 | 1016.8 |
| 20260508190315 | 55 | 360 | 0.0 | 0.0 | 0.00 | 0.00 | 0.00 | 74 | 1016.7 |
| 20260508184315 | 56 | 360 | 0.0 | 3.0 | 0.00 | 0.00 | 0.00 | 73 | 1016.5 |
| 20260508183316 | 57 | 360 | 0.0 | 4.0 | 0.00 | 0.00 | 0.00 | 70 | 1016.4 |
| 20260508181315 | 57 | 360 | 4.0 | 10.0 | 0.00 | 0.00 | 0.00 | 64 | 1016.2 |
| 20260508180315 | 57 | 360 | 3.0 | 8.0 | 0.00 | 0.00 | 0.00 | 63 | 1016.2 |
| 20260508174315 | 58 | 360 | 3.0 | 7.0 | 0.00 | 0.00 | 0.00 | 60 | 1016.1 |
| 20260508173315 | 58 | 40 | 4.0 | 6.0 | 0.00 | 0.00 | 0.00 | 59 | 1016.0 |
| 20260508171316 | 59 | 24 | 1.0 | 2.0 | 0.00 | 0.00 | 0.00 | 62 | 1015.7 |
| 20260508170315 | 59 | 22 | 1.0 | 3.0 | 0.00 | 0.00 | 0.00 | 55 | 1015.8 |
| 20260508164315 | 60 | 23 | 2.0 | 4.0 | 0.00 | 0.00 | 0.00 | 55 | 1015.7 |
| 20260508163315 | 61 | 34 | 2.0 | 4.0 | 0.00 | 0.00 | 0.00 | 51 | 1015.8 |
| 20260508161315 | 60 | 360 | 2.0 | 6.0 | 0.00 | 0.00 | 0.00 | 51 | 1015.8 |
| 20260508160314 | 60 | 294 | 2.0 | 5.0 | 0.00 | 0.00 | 0.00 | 51 | 1015.8 |
| 20260508154315 | 60 | 32 | 2.0 | 3.0 | 0.00 | 0.00 | 0.00 | 52 | 1015.7 |
| 20260508153314 | 60 | 9 | 0.0 | 4.0 | 0.00 | 0.00 | 0.00 | 51 | 1015.9 |
| 20260508151314 | 59 | 360 | 1.0 | 3.0 | 0.00 | 0.00 | 0.00 | 52 | 1016.0 |
| 20260508150314 | 59 | 360 | 1.0 | 4.0 | 0.00 | 0.00 | 0.00 | 55 | 1016.1 |
| 20260508144314 | 58 | 360 | 1.0 | 3.0 | 0.00 | 0.00 | 0.00 | 65 | 1016.2 |
| 20260508143316 | 58 | 360 | 0.0 | 2.0 | 0.00 | 0.00 | 0.00 | 62 | 1016.2 |
| 20260508141315 | 58 | 360 | 1.0 | 3.0 | 0.00 | 0.00 | 0.00 | 63 | 1016.2 |
| 20260508140603 | 58 | 360 | 2.0 | 5.0 | 0.00 | 0.00 | 0.00 | 55 | 1016.3 |
| 20260508134314 | 58 | 360 | 1.0 | 5.0 | 0.00 | 0.00 | 0.00 | 55 | 1016.3 |
| 20260508133314 | 59 | 360 | 0.0 | 3.0 | 0.00 | 0.00 | 0.00 | 59 | 1016.2 |
| 20260508131315 | 59 | 360 | 0.0 | 3.0 | 0.00 | 0.00 | 0.00 | 61 | 1016.2 |
| 20260508130314 | 59 | 360 | 2.0 | 4.0 | 0.00 | 0.00 | 0.00 | 51 | 1016.3 |
| 20260508124313 | 59 | 360 | 3.0 | 5.0 | 0.00 | 0.00 | 0.00 | 52 | 1016.3 |
| 20260508123314 | 59 | 360 | 2.0 | 5.0 | 0.00 | 0.00 | 0.00 | 52 | 1016.4 |
| 20260508121313 | 58 | 360 | 2.0 | 5.0 | 0.00 | 0.00 | 0.00 | 51 | 1016.5 |
| 20260508120314 | 59 | 360 | 4.0 | 6.0 | 0.00 | 0.00 | 0.00 | 52 | 1016.5 |
| 20260508114313 | 60 | 347 | 4.0 | 9.0 | 0.00 | 0.00 | 0.00 | 50 | 1016.3 |
| 20260508113314 | 60 | 309 | 0.0 | 6.0 | 0.00 | 0.00 | 0.00 | 50 | 1016.2 |
| 20260508111313 | 59 | 220 | 2.0 | 4.0 | 0.00 | 0.00 | 0.00 | 52 | 1016.3 |
| 20260508110313 | 59 | 204 | 3.0 | 5.0 | 0.00 | 0.00 | 0.00 | 53 | 1016.3 |
| 20260508104314 | 59 | 328 | 3.0 | 6.0 | 0.00 | 0.00 | 0.00 | 52 | 1016.4 |
| 20260508103314 | 58 | 252 | 2.0 | 6.0 | 0.00 | 0.00 | 0.00 | 54 | 1016.4 |
| 20260508101313 | 58 | 240 | 3.0 | 6.0 | 0.00 | 0.00 | 0.00 | 58 | 1016.6 |
| 20260508100313 | 57 | 280 | 3.0 | 5.0 | 0.00 | 0.00 | 0.00 | 59 | 1016.6 |
| 20260508094313 | 56 | 50 | 1.0 | 4.0 | 0.00 | 0.00 | 0.00 | 63 | 1016.6 |
| 20260508093313 | 56 | 93 | 1.0 | 7.0 | 0.00 | 0.00 | 0.00 | 66 | 1016.7 |
| 20260508091313 | 55 | 306 | 2.0 | 5.0 | 0.00 | 0.00 | 0.00 | 68 | 1016.9 |
| 20260508090313 | 54 | 9 | 2.0 | 4.0 | 0.00 | 0.00 | 0.00 | 73 | 1016.8 |
| 20260508084313 | 53 | 76 | 1.0 | 4.0 | 0.00 | 0.00 | 0.00 | 76 | 1017.0 |
| 20260508083313 | 52 | 285 | 2.0 | 3.0 | 0.00 | 0.00 | 0.00 | 78 | 1017.0 |
| 20260508081312 | 51 | 360 | 1.0 | 4.0 | 0.00 | 0.00 | 0.00 | 81 | 1017.1 |
| 20260508080313 | 51 | 194 | 3.0 | 6.0 | 0.00 | 0.00 | 0.00 | 81 | 1017.1 |
| 20260508074313 | 50 | 24 | 3.0 | 4.0 | 0.00 | 0.00 | 0.00 | 85 | 1017.2 |
| 20260508073312 | 49 | 194 | 0.0 | 4.0 | 0.00 | 0.00 | 0.00 | 87 | 1017.1 |
| 20260508071312 | 47 | 110 | 1.0 | 2.0 | 0.00 | 0.00 | 0.00 | 93 | 1017.2 |
| 20260508070312 | 45 | 115 | 1.0 | 2.0 | 0.00 | 0.00 | 0.00 | 94 | 1017.2 |
| 20260508064312 | 44 | 117 | 0.0 | 0.0 | 0.00 | 0.00 | 0.00 | 94 | 1017.0 |
| 20260508063312 | 43 | 360 | 0.0 | 0.0 | 0.00 | 0.00 | 0.00 | 95 | 1016.9 |
| 20260508061312 | 40 | 360 | 0.0 | 0.0 | 0.00 | 0.00 | 0.00 | 95 | 1016.9 |
| 20260508060312 | 39 | 360 | 0.0 | 0.0 | 0.00 | 0.00 | 0.00 | 95 | 1016.8 |
| 20260508054312 | 37 | 360 | 0.0 | 0.0 | 0.00 | 0.00 | 0.00 | 95 | 1016.7 |
| 20260508053311 | 37 | 360 | 0.0 | 0.0 | 0.00 | 0.00 | 0.00 | 96 | 1016.7 |
| 20260508051312 | 35 | 360 | 0.0 | 0.0 | 0.00 | 0.00 | 0.00 | 96 | 1016.6 |
| 20260508050312 | 34 | 360 | 0.0 | 0.0 | 0.00 | 0.00 | 0.00 | 95 | 1016.5 |
| 20260508044311 | 33 | 360 | 0.0 | 0.0 | 0.00 | 0.00 | 0.00 | 95 | 1016.4 |
| 20260508043312 | 33 | 360 | 0.0 | 0.0 | 0.00 | 0.00 | 0.00 | 95 | 1016.4 |
| 20260508041311 | 33 | 360 | 0.0 | 0.0 | 0.00 | 0.00 | 0.00 | 95 | 1016.3 |
| 20260508040312 | 33 | 360 | 0.0 | 0.0 | 0.00 | 0.00 | 0.00 | 95 | 1016.2 |
| 20260508034311 | 33 | 360 | 0.0 | 0.0 | 0.00 | 0.00 | 0.00 | 94 | 1016.2 |
| 20260508033311 | 33 | 360 | 0.0 | 0.0 | 0.00 | 0.00 | 0.00 | 94 | 1016.2 |
| 20260508031312 | 34 | 360 | 0.0 | 0.0 | 0.00 | 0.00 | 0.00 | 94 | 1016.3 |
| 20260508030311 | 34 | 360 | 0.0 | 0.0 | 0.00 | 0.00 | 0.00 | 94 | 1016.2 |